{"data":{"norad_id":63682,"epoch":"2026-09-20T18:34:41.609280Z","epoch_age_seconds":128932,"freshness":"FRESH","line1":"1 63682U 25085U   26263.77409270  .00019399  00000+0  71221-3 0  9996","line2":"2 63682  43.0014   9.3458 0001760 281.2139  78.8515 15.27597906 78705","mean_motion":15.27597906,"eccentricity":0.000176,"inclination_deg":43.0014,"raan_deg":9.3458,"arg_perigee_deg":281.2139,"mean_anomaly_deg":78.8515,"bstar":0.00071221,"rev_number":7870,"period_min":94.265643749842,"perigee_km":481.78792024134,"apogee_km":484.20303887414,"semimajor_km":6861.1324795577,"source":"CELESTRAK","updated_at":"2026-09-21T09:00:35.060815Z"}}